Content
SEND FEEDBACK

Daily
Averages
Monthly
Summary
United States of America

ROGERS, NORTH DAKOTA


Home > North America > United States > North Dakota
Elevation: 1403 feet     Latitude: 46 58N     Longitude: 098 02W

WEATHER
 
SELECT A DAY
Number of Records: 69,062;   Date Range: 12/15/10 - 10/19/14
 
SHARE

PRINT THIS DATA

[ ← Previous Day ]
WEATHER ALMANAC - JANUARY 23, 2013
[ Next Day → ]
[ °C ]   °F
Weather ElementAverageHighLow
Temperature-3.2 °F6.8 °F (12:35 am)-13 °F (9:35 pm)
Dewpoint-10.1 °F5 °F (12:35 am)-22 °F (11:15 pm)
Humidity72.5 %92 % (12:35 am)55 % (4:15 pm)
Barometer30.36 in30.59 in (10:35 pm)30.09 in (12:35 am)
Wind Speed12 mph19.6 mph (11:35 am)
Wind Gust26.5 mph (1:15 pm)
Weather ElementAverage
Visibility10 mi
Wind DirectionWSW (242.8 °)

Weather ElementTotal
Precipitation---
Heating Degree Days68.1 (Base 65)
Averaged from 68 records on January 23, 2013
WEATHER CONDITIONS BREAKOUT
WIND DIRECTION BREAKOUT
WEATHER BY HOUR - JANUARY 23, 2013
[ °C ]   °F
Local TimeTemperatureDewpointHumidityBarometerVisibilityWind DirectionWind SpeedGust SpeedPrecipitationEventsConditions
12:35 AM6.8 °F5.0 °F92 %30.09 in10.0 miSW (230°)9.2 mphSnowLight Snow
12:55 AM6.8 °F3.2 °F85 %30.09 in10.0 miWSW (250°)10.4 mphPartly Cloudy
1:15 AM6.8 °F3.2 °F85 %30.10 in10.0 miWest (270°)10.4 mphClear
1:35 AM6.8 °F3.2 °F85 %30.09 in10.0 miWest (270°)10.4 mphClear
1:55 AM6.8 °F5.0 °F92 %30.10 in10.0 miWNW (290°)11.5 mphClear
2:15 AM6.8 °F3.2 °F85 %30.10 in10.0 miNW (310°)13.8 mph18.4 mphClear
2:35 AM6.8 °F3.2 °F85 %30.11 in10.0 miNW (320°)11.5 mphPartly Cloudy
2:55 AM5.0 °F1.4 °F85 %30.11 in10.0 miNNW (330°)11.5 mphClear
3:15 AM5.0 °F1.4 °F85 %30.12 in10.0 miNNW (330°)10.4 mphClear
3:35 AM5.0 °F1.4 °F85 %30.12 in10.0 miNW (320°)10.4 mphClear
3:55 AM5.0 °F-0.4 °F78 %30.13 in10.0 miNNW (330°)11.5 mphClear
4:15 AM3.2 °F-0.4 °F85 %30.14 in10.0 miNNW (330°)11.5 mphClear
4:35 AM1.4 °F-0.4 °F92 %30.15 in10.0 miNNW (330°)10.4 mphScattered Clouds
4:55 AM1.4 °F-0.4 °F92 %30.15 in10.0 miNW (320°)10.4 mphPartly Cloudy
5:15 AM-0.4 °F-2.2 °F92 %30.16 in10.0 miNW (320°)9.2 mphClear
5:35 AM-0.4 °F-2.2 °F92 %30.17 in10.0 miNW (320°)9.2 mphClear
6:15 AM-0.4 °F-4.0 °F85 %30.19 in10.0 miNNW (330°)11.5 mphScattered Clouds
6:35 AM-0.4 °F-4.0 °F85 %30.20 in10.0 miNNW (340°)16.1 mphScattered Clouds
6:55 AM-0.4 °F-4.0 °F85 %30.21 in10.0 miNNW (340°)12.7 mphMostly Cloudy
7:15 AM-0.4 °F-5.8 °F78 %30.22 in10.0 miNNW (340°)12.7 mph19.6 mphScattered Clouds
7:35 AM-2.2 °F-7.6 °F78 %30.24 in10.0 miNorth (350°)13.8 mphClear
7:55 AM-2.2 °F-7.6 °F78 %30.24 in10.0 miNorth (350°)13.8 mphClear
8:15 AM-2.2 °F-7.6 °F78 %30.26 in10.0 miNNW (340°)15.0 mphClear
8:35 AM-2.2 °F-7.6 °F78 %30.27 in10.0 miNNW (340°)12.7 mphClear
8:55 AM-2.2 °F-9.4 °F71 %30.29 in10.0 miNNW (340°)13.8 mph19.6 mphClear
9:15 AM-2.2 °F-9.4 °F71 %30.31 in10.0 miNNW (340°)15.0 mphClear
9:35 AM-2.2 °F-9.4 °F71 %30.32 in10.0 miNorth (350°)13.8 mph23.0 mphClear
9:55 AM-2.2 °F-9.4 °F71 %30.34 in10.0 miNorth (360°)16.1 mph21.9 mphSnowLight Snow
10:15 AM-2.2 °F-9.4 °F71 %30.35 in10.0 miNorth (360°)16.1 mph21.9 mphSnowLight Snow
10:35 AM-2.2 °F-11.2 °F66 %30.37 in10.0 miNorth (360°)18.4 mph23.0 mphScattered Clouds
10:55 AM-2.2 °F-11.2 °F66 %30.39 in10.0 miNorth (360°)13.8 mph24.2 mphSnowLight Snow
11:15 AM-2.2 °F-11.2 °F66 %30.40 in10.0 miNorth (360°)17.3 mphOvercast
11:35 AM-2.2 °F-11.2 °F66 %30.40 in10.0 miNorth (360°)19.6 mphMostly Cloudy
11:55 AM-2.2 °F-11.2 °F66 %30.41 in10.0 miNorth (350°)18.4 mphMostly Cloudy
12:15 PM-2.2 °F-11.2 °F66 %30.41 in10.0 miNorth (10°)18.4 mph21.9 mphSnowLight Snow
12:35 PM-2.2 °F-11.2 °F66 %30.42 in10.0 miNorth (350°)17.3 mph25.3 mphSnowLight Snow
12:55 PM-2.2 °F-11.2 °F66 %30.42 in10.0 miNorth (360°)17.3 mphMostly Cloudy
1:15 PM-2.2 °F-11.2 °F66 %30.42 in10.0 miNorth (350°)15.0 mph26.5 mphMostly Cloudy
1:35 PM-2.2 °F0.0 °F30.42 in10.0 miNorth (350°)18.4 mph21.9 mphMostly Cloudy
1:55 PM-2.2 °F-13.0 °F60 %30.42 in10.0 miNorth (360°)18.4 mph23.0 mphMostly Cloudy
2:15 PM-2.2 °F-13.0 °F60 %30.43 in10.0 miNorth (350°)13.8 mph21.9 mphOvercast
2:35 PM-2.2 °F-13.0 °F60 %30.44 in10.0 miNorth (360°)17.3 mph24.2 mphSnowLight Snow
3:15 PM-4.0 °F-14.8 °F60 %30.47 in10.0 miNorth (10°)15.0 mph24.2 mphPartly Cloudy
3:35 PM-4.0 °F-14.8 °F60 %30.48 in10.0 miNorth (10°)13.8 mphScattered Clouds
3:55 PM-4.0 °F-14.8 °F60 %30.49 in10.0 miNorth (10°)13.8 mphMostly Cloudy
4:15 PM-4.0 °F-16.6 °F55 %30.51 in10.0 miNorth (360°)15.0 mphMostly Cloudy
4:35 PM-4.0 °F-16.6 °F55 %30.52 in10.0 miNorth (350°)13.8 mph17.3 mphScattered Clouds
4:55 PM-5.8 °F-16.6 °F60 %30.52 in10.0 miNorth (10°)11.5 mphScattered Clouds
5:15 PM-7.6 °F-16.6 °F65 %30.52 in10.0 miNorth (10°)10.4 mphMostly Cloudy
5:35 PM-7.6 °F-16.6 °F65 %30.53 in10.0 miNorth (360°)9.2 mphPartly Cloudy
5:55 PM-7.6 °F-16.6 °F65 %30.53 in10.0 miNorth (360°)9.2 mphClear
6:15 PM-7.6 °F-16.6 °F65 %30.53 in10.0 miNorth (10°)10.4 mphClear
6:35 PM-9.4 °F-18.4 °F65 %30.53 in10.0 miNNE (20°)9.2 mphClear
6:55 PM-9.4 °F-18.4 °F65 %30.53 in10.0 miNorth (10°)11.5 mphClear
7:15 PM-9.4 °F-18.4 °F65 %30.55 in10.0 miNorth (360°)8.1 mphPartly Cloudy
7:35 PM-9.4 °F-18.4 °F65 %30.55 in10.0 miNorth (360°)6.9 mphMostly Cloudy
7:55 PM-11.2 °F-18.4 °F70 %30.55 in10.0 miNorth (10°)5.8 mphPartly Cloudy
8:15 PM-11.2 °F-18.4 °F70 %30.54 in10.0 miNNE (20°)6.9 mphClear
8:35 PM-11.2 °F-18.4 °F70 %30.54 in10.0 miNE (50°)5.8 mphClear
8:55 PM-11.2 °F-18.4 °F70 %30.54 in10.0 miNE (50°)9.2 mphClear
9:15 PM-11.2 °F-20.2 °F64 %30.56 in10.0 miNE (50°)6.9 mphClear
9:35 PM-13.0 °F-20.2 °F70 %30.57 in10.0 miNE (50°)6.9 mphClear
10:15 PM-13.0 °F-20.2 °F70 %30.57 in10.0 miENE (70°)8.1 mphPartly Cloudy
10:35 PM-13.0 °F-20.2 °F70 %30.59 in10.0 miENE (70°)4.6 mphPartly Cloudy
10:55 PM-13.0 °F-20.2 °F70 %30.59 in10.0 miENE (70°)6.9 mphClear
11:15 PM-13.0 °F-22.0 °F64 %30.59 in10.0 miNE (50°)5.8 mphScattered Clouds
11:35 PM-13.0 °F-22.0 °F64 %30.58 in10.0 miENE (70°)8.1 mphMostly Cloudy
11:55 PM-13.0 °F-22.0 °F64 %30.57 in10.0 miEast (80°)8.1 mphPartly Cloudy
Hourly data recorded from KBAC, located miles away from Rogers, North Dakota







STORIES FROM OUR PARTNERS